Regional Weather Roundup
Issued by NWS

Home | Current Version | Previous Version | Graphics & Text | Print | Product List | Glossary On
Versions: 1 2 3 4 5 6 7 8 9 10 11 12 13 14 15 16 17 18 19 20 21 22 23 24 25 26 27 28 29 30 31 32 33 34 35 36 37 38 39 40 41 42 43 44 45 46 47 48 49 50
000
ASUS45 KBOU 241507
RWRCO

WEATHER ROUNDUP FOR COLORADO
NATIONAL WEATHER SERVICE DENVER/BOULDER CO
900 AM MDT SUN MAY 24 2015

NOTE: "FAIR" INDICATES FEW OR NO CLOUDS BELOW 12000 FEET WITH NO
SIGNIFICANT WEATHER AND/OR OBSTRUCTIONS TO VISIBILITY.

COZ001>005-013-030-031-241600-
...NORTHWEST COLORADO...

CITY           SKY/WX    TMP DP  RH WIND       PRES   REMARKS
CRAIG          LGT RAIN  44  38  79 CALM      29.96S
HAYDEN         CLOUDY    43  36  75 N6        29.95S
MEEKER         CLOUDY    44  36  73 CALM      29.96S
MOUNT WERNER   NOT AVBL
STEAMBOAT SPGS CLOUDY    43  34  71 E5        29.95S
WALDEN         MOSUNNY   39  32  75 S10       29.90F
$$

COZ006>008-011-241600-
...WEST CENTRAL VALLEYS...

CITY           SKY/WX    TMP DP  RH WIND       PRES   REMARKS
GRAND JUNCTION CLOUDY    49  43  80 S3        29.96S
MONTROSE       CLOUDY    49  39  68 CALM      30.00R
EAGLE          MOSUNNY   45  37  76 CALM      29.99F
RIFLE          LGT RAIN  46  42  86 CALM      29.97S
DELTA          CLOUDY    49  43  79 MISG      29.98F
NUCLA          CLOUDY    46  37  71 CALM      30.03S
$$

COZ017>023-064>068-241600-
...SOUTHWEST COLORADO...

CITY           SKY/WX    TMP DP  RH WIND       PRES   REMARKS
DURANGO        CLOUDY    42  39  89 W5        30.01R
CORTEZ         CLOUDY    46  42  86 CALM      30.00S
PAGOSA SPRINGS DRIZZLE   39  38  97 CALM      30.03R
TELLURIDE      CLOUDY    34  32  90 CALM      30.05R
WOLF CREEK PAS NOT AVBL
$$

COZ009-010-012-014-032>034-037-058>063-241600-
...CENTRAL COLORADO...

CITY           SKY/WX    TMP DP  RH WIND       PRES   REMARKS
ASPEN          PTSUNNY   44  34  67 N6        29.97S
BUENA VISTA    PTSUNNY   44  31  60 SE5       29.99R
COPPER MTN     PTSUNNY   30  21  69 SW7       30.06R WCI  23
BERTHOUD PASS  HAZE      21  14  73 NW6       30.08R VSB<1/4 WCI  14
COTTONWOOD PAS CLOUDY    41  28  60 W3        30.03R
GUNNISON       MOSUNNY   43  32  65 SE3       30.02S
KREMMLING      CLOUDY    39  32  75 E7        30.01S
LEADVILLE      PTSUNNY   35  21  56 S5        30.00S WCI  31
MONARCH PASS   FOG       25  23  93 MISG      30.17R VSB<1/4
SALIDA         PTSUNNY   45  34  65 CALM      30.05S
SUNLIGHT       CLOUDY    32  30  93 CALM        N/A
WILKERSON PASS CLOUDY    32  27  80 SW6       30.08R WCI  26
$$

COZ069>075-241600-
...SAN LUIS VALLEY/SANGRE DE CRISTO MOUNTAINS...

CITY           SKY/WX    TMP DP  RH WIND       PRES   REMARKS
ALAMOSA        CLOUDY    47  33  58 S12       29.97S
LA VETA PASS   CLOUDY   N/A N/A N/A MISG      30.03S
SAGUACHE       CLOUDY    41  34  75 S5        30.00S
$$

COZ035-036-038>040-241600-
...NORTHERN COLORADO FRONT RANGE...

CITY           SKY/WX    TMP DP  RH WIND       PRES   REMARKS
DENVER INTL AP MOSUNNY   53  43  68 VRB3      29.90S
DMNS CITY PARK   N/A     53  41  64 NE5       29.90S
AURORA         PTSUNNY   50  42  72 N3        29.91S
FRONT RANGE AP MOSUNNY   54  45  71 N5        29.91R
ERIE MUNI ARPT SUNNY     51  42  71 NE3       29.90S
BOULDER MUN AP SUNNY     50  41  71 CALM      29.90S
CENTENNIAL     PTSUNNY   51  40  65 E5        29.90S
BROOMFIELD     MOSUNNY   50  41  71 N6        29.91S
FORT COLLINS   SUNNY     52  45  76 CALM      29.92R
LONGMONT       SUNNY     57  43  59 CALM      29.91S
$$

COZ041-046-047-076>085-087-088-241600-
...PIKES PEAK/PALMER DIVIDE AND SOUTHERN FOOTHILLS...

CITY           SKY/WX    TMP DP  RH WIND       PRES   REMARKS
COLO. SPRINGS  PTSUNNY   51  42  71 CALM      29.92R
A. F. ACADEMY  MOSUNNY   47  39  73 N1        29.92R
ELLICOTT       NOT AVBL
FALCON         MOSUNNY   52  39  61 SW6       29.94S
FORT CARSON    PTSUNNY   49  43  80 W5        29.90S
LIMON          SUNNY     52  45  77 CALM      29.91S
MONUMENT HILL  NOT AVBL
TRINIDAD       SUNNY     55  39  54 VRB3      29.90S
$$

COZ042>045-048>051-090-091-241600-
...NORTHEAST COLORADO...

CITY           SKY/WX    TMP DP  RH WIND       PRES   REMARKS
GREELEY ARPT   SUNNY     52  45  76 CALM      29.91R
AKRON          PTSUNNY   50  46  86 CALM      29.91R
BURLINGTON     CLOUDY    56  49  77 CALM      29.89S
WRAY           CLOUDY    57  53  86 CALM      29.89S
STERLING       CLOUDY    52  46  82 CALM      29.89R
HOLYOKE        NOT AVBL
FORT MORGAN    CLOUDY    50  47  88 CALM      29.91R
$$

COZ086-089-092>099-241600-
...SOUTHEAST COLORADO...

CITY           SKY/WX    TMP DP  RH WIND       PRES   REMARKS
PUEBLO         MOSUNNY   55  46  71 W5        29.87F
LA JUNTA       MOSUNNY   56  50  80 S6        29.89R
LAMAR          MOSUNNY   60  52  74 W7        29.85S
SPRINGFIELD      N/A     59  50  72 CALM      29.87S
$$



USA.gov is the U.S. government's official web portal to all federal, state and local government web resources and services.